Location: Buckland
(65.9785°N, 161.1281°W)
Time: 15:07:09
(UTC+00:00)

Transit 4A - Pass Details

Date: 09 October 2022
Orbit: 871 x 972 km, 66.8° (Epoch: 29 November)

Event Time Altitude Azimuth Distance (km) Brightness Sun altitude
Exits shadow 14:58:32 11° 296° (WNW) 2,472 9.7 -15.2°
Maximum altitude 15:03:53 46° 226° (SW) 1,167 8.0 -14.7°
Drops below altitude 10° 15:09:24 10° 154° (SSE) 2,524 10.3 -14.1°
Sets 15:11:57 0° 149° (SSE) 3,458 11.1 -13.9°
